Hourly Weather Rusyvel'

Today, 10 April, Saturday

Time Temperature Precipitation Wind Pressure Humidity
00:00 +1°C° 0 mm 3 mps 746 mmHg 67%
01:00 +1°C° 0 mm 3 mps 746 mmHg 68%
02:00 +1°C° 0 mm 3 mps 746 mmHg 69%
03:00 +1°C° 0 mm 3 mps 745 mmHg 68%
04:00 0°C° 0 mm 4 mps 745 mmHg 67%
05:00 0°C° 0 mm 4 mps 745 mmHg 67%
06:00 +1°C° 0 mm 4 mps 745 mmHg 64%
07:00 +2°C° 0 mm 5 mps 745 mmHg 61%
08:00 +3°C° 0 mm 5 mps 745 mmHg 58%
09:00 +6°C° 0 mm 5 mps 745 mmHg 53%
10:00 +8°C° 0 mm 5 mps 745 mmHg 47%
11:00 +9°C° 0 mm 6 mps 745 mmHg 42%
12:00 +10°C° 0 mm 5 mps 745 mmHg 41%
13:00 +12°C° 0 mm 5 mps 745 mmHg 40%
14:00 +13°C° 0 mm 5 mps 745 mmHg 39%
15:00 +13°C° 0 mm 4 mps 744 mmHg 41%
16:00 +13°C° 0 mm 4 mps 744 mmHg 43%
17:00 +13°C° 0 mm 4 mps 744 mmHg 45%
18:00 +11°C° 0 mm 3 mps 744 mmHg 50%
19:00 +9°C° 0 mm 3 mps 745 mmHg 56%
20:00 +7°C° 0 mm 3 mps 745 mmHg 61%
21:00 +7°C° 0 mm 3 mps 745 mmHg 62%
22:00 +5°C° 0 mm 3 mps 745 mmHg 62%
23:00 +5°C° 0 mm 3 mps 746 mmHg 63%

Tomorrow, 11 April, Sunday

Time Temperature Precipitation Wind Pressure Humidity
00:00 +4°C° 0 mm 3 mps 746 mmHg 63%
01:00 +4°C° 0 mm 3 mps 746 mmHg 63%
02:00 +3°C° 0 mm 3 mps 746 mmHg 64%
03:00 +3°C° 0 mm 3 mps 746 mmHg 64%
04:00 +3°C° 0 mm 3 mps 746 mmHg 65%
05:00 +2°C° 0 mm 3 mps 746 mmHg 66%
06:00 +4°C° 0 mm 3 mps 747 mmHg 62%
07:00 +5°C° 0 mm 3 mps 747 mmHg 58%
08:00 +7°C° 0 mm 4 mps 747 mmHg 54%
09:00 +8°C° 0 mm 4 mps 747 mmHg 49%
10:00 +10°C° 0 mm 5 mps 748 mmHg 44%
11:00 +13°C° 0 mm 5 mps 748 mmHg 38%
12:00 +13°C° 0 mm 5 mps 747 mmHg 37%
13:00 +14°C° 0 mm 5 mps 747 mmHg 35%
14:00 +15°C° 0 mm 5 mps 747 mmHg 33%
15:00 +14°C° 0 mm 5 mps 747 mmHg 36%
16:00 +14°C° 0 mm 4 mps 747 mmHg 38%
17:00 +14°C° 0 mm 4 mps 747 mmHg 40%
18:00 +12°C° 0 mm 4 mps 747 mmHg 46%
19:00 +10°C° 0 mm 4 mps 747 mmHg 52%
20:00 +8°C° 0 mm 3 mps 747 mmHg 58%
21:00 +7°C° 0 mm 3 mps 747 mmHg 60%
22:00 +7°C° 0 mm 3 mps 747 mmHg 61%
23:00 +5°C° 0 mm 3 mps 747 mmHg 63%

Day after tomorrow, 12 April, Monday

Time Temperature Precipitation Wind Pressure Humidity
00:00 +5°C° 0 mm 3 mps 747 mmHg 64%
01:00 +4°C° 0 mm 3 mps 747 mmHg 65%
02:00 +3°C° 0 mm 3 mps 747 mmHg 66%
03:00 +3°C° 0 mm 3 mps 747 mmHg 67%
04:00 +3°C° 0 mm 3 mps 746 mmHg 68%
05:00 +2°C° 0 mm 3 mps 746 mmHg 69%
06:00 +4°C° 0 mm 3 mps 746 mmHg 65%
07:00 +5°C° 0 mm 3 mps 746 mmHg 61%
08:00 +7°C° 0 mm 4 mps 746 mmHg 56%
09:00 +8°C° 0 mm 4 mps 746 mmHg 51%
10:00 +11°C° 0 mm 4 mps 745 mmHg 46%
11:00 +13°C° 0 mm 4 mps 745 mmHg 40%
12:00 +13°C° 0 mm 4 mps 745 mmHg 38%
13:00 +14°C° 0 mm 4 mps 744 mmHg 36%
14:00 +16°C° 0 mm 3 mps 744 mmHg 34%
15:00 +16°C° 0 mm 3 mps 743 mmHg 36%
16:00 +16°C° 0 mm 3 mps 743 mmHg 37%
17:00 +16°C° 0 mm 2 mps 743 mmHg 38%
18:00 +14°C° 0 mm 2 mps 743 mmHg 44%
19:00 +12°C° 0 mm 3 mps 743 mmHg 49%
20:00 +10°C° 0 mm 3 mps 743 mmHg 55%
21:00 +9°C° 0 mm 3 mps 743 mmHg 57%
22:00 +9°C° 0 mm 3 mps 743 mmHg 60%
23:00 +8°C° 0 mm 2 mps 743 mmHg 62%

13 April, Tuesday

Time Temperature Precipitation Wind Pressure Humidity
00:00 +8°C° 0 mm 2 mps 743 mmHg 64%
01:00 +8°C° 0 mm 2 mps 743 mmHg 65%
02:00 +7°C° 0 mm 2 mps 742 mmHg 66%
03:00 +7°C° 0 mm 2 mps 742 mmHg 67%
04:00 +7°C° 0 mm 2 mps 742 mmHg 67%
05:00 +7°C° 0 mm 2 mps 742 mmHg 68%
06:00 +8°C° 0 mm 2 mps 742 mmHg 64%
07:00 +9°C° 0 mm 2 mps 742 mmHg 61%
08:00 +12°C° 0 mm 2 mps 742 mmHg 57%
09:00 +13°C° 0 mm 2 mps 742 mmHg 52%
10:00 +14°C° 0 mm 3 mps 742 mmHg 47%
11:00 +17°C° 0 mm 3 mps 742 mmHg 42%
12:00 +18°C° 0 mm 3 mps 741 mmHg 41%
13:00 +18°C° 0 mm 3 mps 741 mmHg 39%
14:00 +19°C° 0 mm 2 mps 741 mmHg 38%
15:00 +19°C° 0 mm 2 mps 741 mmHg 39%
16:00 +19°C° 0 mm 2 mps 740 mmHg 41%
17:00 +19°C° 0 mm 2 mps 740 mmHg 42%
18:00 +17°C° 0 mm 2 mps 740 mmHg 47%
19:00 +15°C° 0 mm 2 mps 740 mmHg 52%
20:00 +13°C° 0 mm 3 mps 740 mmHg 56%
21:00 +12°C° 0 mm 3 mps 740 mmHg 59%
22:00 +11°C° 0 mm 3 mps 740 mmHg 62%
23:00 +11°C° 0 mm 3 mps 739 mmHg 64%

14 April, Wednesday

Time Temperature Precipitation Wind Pressure Humidity
00:00 +12°C° 0 mm 2 mps 739 mmHg 67%
01:00 +10°C° 0 mm 2 mps 739 mmHg 70%
02:00 +10°C° 0 mm 2 mps 739 mmHg 73%
03:00 +10°C° 0 mm 2 mps 739 mmHg 76%
04:00 +10°C° 0 mm 2 mps 738 mmHg 79%
05:00 +10°C° 0 mm 2 mps 738 mmHg 82%
06:00 +10°C° 0 mm 2 mps 738 mmHg 82%
07:00 +10°C° 0 mm 2 mps 738 mmHg 82%
08:00 +12°C° 0 mm 2 mps 738 mmHg 81%
09:00 +11°C° 0 mm 3 mps 738 mmHg 77%
10:00 +12°C° 0 mm 4 mps 738 mmHg 72%
11:00 +13°C° 0 mm 4 mps 738 mmHg 67%
12:00 +13°C° 0 mm 4 mps 738 mmHg 64%
13:00 +13°C° 0 mm 4 mps 738 mmHg 62%
14:00 +13°C° 0 mm 4 mps 737 mmHg 59%
15:00 +13°C° 0 mm 4 mps 737 mmHg 59%
16:00 +13°C° 0 mm 4 mps 737 mmHg 59%
17:00 +13°C° 0 mm 4 mps 737 mmHg 59%
18:00 +12°C° 0.1 mm 4 mps 737 mmHg 64%
19:00 +11°C° 0.1 mm 3 mps 737 mmHg 69%
20:00 +10°C° 0.1 mm 3 mps 738 mmHg 75%
21:00 +10°C° 0.3 mm 3 mps 738 mmHg 78%
22:00 +9°C° 0.3 mm 3 mps 738 mmHg 81%
23:00 +9°C° 0.3 mm 3 mps 738 mmHg 84%

15 April, Thursday

Time Temperature Precipitation Wind Pressure Humidity
00:00 +9°C° 0 mm 3 mps 738 mmHg 83%
01:00 +9°C° 0 mm 3 mps 738 mmHg 83%
02:00 +8°C° 0 mm 3 mps 738 mmHg 83%
03:00 +8°C° 0 mm 3 mps 738 mmHg 85%
04:00 +8°C° 0 mm 3 mps 738 mmHg 86%
05:00 +8°C° 0 mm 3 mps 738 mmHg 88%
06:00 +8°C° 0 mm 3 mps 738 mmHg 88%
07:00 +8°C° 0 mm 3 mps 739 mmHg 88%
08:00 +8°C° 0 mm 3 mps 739 mmHg 88%
09:00 +9°C° 0 mm 3 mps 739 mmHg 84%
10:00 +10°C° 0 mm 3 mps 739 mmHg 81%
11:00 +11°C° 0 mm 3 mps 739 mmHg 77%
12:00 +11°C° 0.1 mm 3 mps 739 mmHg 75%
13:00 +11°C° 0.1 mm 3 mps 739 mmHg 74%
14:00 +12°C° 0.1 mm 4 mps 739 mmHg 72%
15:00 +12°C° 0.1 mm 4 mps 739 mmHg 72%
16:00 +12°C° 0.1 mm 4 mps 739 mmHg 73%
17:00 +12°C° 0.1 mm 4 mps 738 mmHg 73%
18:00 +10°C° 0.1 mm 5 mps 738 mmHg 76%
19:00 +10°C° 0.1 mm 5 mps 738 mmHg 79%
20:00 +9°C° 0.1 mm 6 mps 739 mmHg 82%
21:00 +9°C° 0.8 mm 6 mps 738 mmHg 84%
22:00 +9°C° 0.8 mm 7 mps 738 mmHg 86%
23:00 +8°C° 0.8 mm 7 mps 738 mmHg 89%
Show more